SCP
0 0 0 0 0 0 0 0 0 0 0 0 0 0 1 1 1 1 1 1 1 2 2 2 2 2 1 1 1 1 2 2 2 2 1 1 1 1 1 1 1 1 1 1
0 0 0 0 0 0 0 0 0 0 0 0 0 1 1 1 1 1 1 1 1 2 2 2 2 2 1 1 1 1 2 2 2 1 1 1 1 1 1 1 1 1 1 1
0 0 0 0 0 0 0 0 0 0 0 0 1 1 1 1 1 1 1 1 1 1 1 1 1 2 1 1 1 1 1 1 1 1 1 1 1 1 1 1 1 1 1 1
0 0 0 0 0 0 0 0 0 0 0 1 1 1 1 1 1 1 1 1 1 1 1 1 1 1 1 1 1 1 1 1 1 1 1 1 1 1 1 1 1 1 1 1
0 0 0 0 0 0 0 0 0 0 0 1 1 1 1 1 1 1 1 1 1 1 1 1 1 1 1 1 1 1 1 1 1 1 1 1 1 1 1 1 1 1 1 1
0 0 0 0 0 0 0 0 0 0 1 1 1 1 1 1 1 1 1 1 2 2 1 1 1 1 1 1 1 1 1 1 1 1 1 1 1 1 1 1 1 1 1 1
0 0 0 0 0 0 0 0 1 1 1 1 1 1 1 1 2 2 2 1 2 2 2 2 1 1 1 1 1 1 1 1 1 1 1 1 1 1 1 1 1 1 1 1
0 0 0 0 0 0 1 1 1 1 1 1 1 1 1 2 2 2 2 1 1 1 1 1 1 1 1 1 1 1 1 1 1 1 1 1 1 1 1 1 1 1 1 1
0 0 0 0 0 1 1 1 1 1 1 1 1 1 1 2 2 2 2 1 1 1 1 1 1 1 1 1 1 1 1 1 1 1 1 1 1 1 1 1 1 1 1 1
0 0 0 0 0 1 1 1 1 1 1 1 1 1 1 2 2 2 1 1 1 1 1 1 1 1 1 1 1 1 1 1 1 1 1 1 1 1 1 1 1 1 1 1
0 1 1 1 1 1 1 1 1 1 0 1 1 1 1 2 2 1 1 1 1 1 1 1 1 1 1 1 1 1 1 1 1 1 1 1 1 1 1 1 0 0 0 0
1 1 1 1 1 1 1 1 0 0 0 0 1 1 1 1 1 1 1 1 1 1 1 1 1 1 1 1 1 1 1 1 1 1 1 1 1 1 0 0 0 0 0 0
1 1 1 1 1 1 1 1 1 0 0 0 1 1 1 1 1 1 1 1 1 1 1 1 1 1 1 1 1 1 1 1 1 1 1 1 1 1 1 0 0 0 0 0
1 1 1 1 1 1 1 0 1 1 0 1 1 1 1 1 1 1 1 1 1 1 1 1 1 1 1 1 1 1 1 1 1 1 1 1 1 1 1 0 0 0 0 0
0 1 1 1 0 0 0 0 0 0 1 1 1 1 1 1 1 1 1 1 1 1 1 1 1 1 1 1 1 1 1 1 1 1 1 1 0 0 0 0 0 0 0 0
0 0 1 1 0 0 0 0 0 1 1 1 1 1 2 2 2 2 1 1 1 1 1 1 1 1 1 1 1 1 0 0 0 0 0 0 0 0 0 0 0 0 0 0
0 0 0 1 0 0 0 0 0 1 1 1 1 1 2 2 2 2 1 1 1 1 1 1 1 1 1 1 1 1 0 0 0 0 0 0 0 0 0 0 0 0 0 0
0 0 0 0 0 0 0 0 1 1 1 1 1 1 1 2 1 1 1 1 1 1 1 1 1 1 1 1 0 0 0 0 0 0 0 0 0 0 0 0 0 0 0 0
0 0 0 0 0 0 1 1 1 1 1 1 1 1 1 1 1 1 1 1 1 1 1 1 1 1 1 0 0 0 0 0 0 0 0 0 0 0 0 0 0 0 0 0
0 0 0 0 0 0 1 1 1 1 1 1 1 1 1 1 1 1 1 1 1 1 1 0 0 0 0 0 0 0 0 0 0 0 0 0 0 0 0 0 0 0 0 0
0 0 0 0 0 0 0 1 1 1 1 1 1 1 1 1 1 1 1 1 1 1 0 0 0 0 0 0 0 0 0 0 0 0 0 0 0 0 0 0 0 0 0 0
0 0 0 0 0 0 0 1 1 1 1 1 1 1 1 1 1 1 1 1 0 0 0 0 0 0 0 0 0 0 0 0 0 0 0 0 0 0 0 0 0 0 0 0
0 0 0 0 0 1 1 1 1 1 1 1 1 1 1 1 0 0 0 0 0 0 0 0 0 0 0 0 0 0 0 0 0 0 0 0 0 0 0 0 0 0 0 0
1 1 1 1 1 1 1 1 1 1 1 1 1 0 0 0 0 0 0 0 0 0 0 0 0 0 0 0 0 0 0 0 0 0 0 0 0 0 0 0 0 0 0 0
1 1 1 1 1 1 1 1 1 1 0 0 0 0 0 0 0 0 0 0 0 0 0 0 0 0 0 0 0 0 0 0 0 0 0 0 0 0 0 0 0 0 0 0
0 1 1 1 1 1 1 0 0 0 0 0 0 0 0 0 0 0 0 0 0 0 0 0 0 0 0 0 0 0 0 0 0 0 0 0 0 0 0 0 0 0 0 0
0 0 0 0 0 0 0 0 0 0 0 0 0 0 0 0 0 0 0 0 0 0 0 0 0 0 0 0 0 0 0 0 0 0 0 0 0 0 0 0 0 0 0 0
Wind_Speed
13 13 13 13 13 12 11 11 10 7 6 5 4 3 3 6 6 5 6 6 6 6 5 5 4 3 3 3 3 3 3 3 3 2 1 1 1 1 2 2 3 2 1 2
15 16 15 15 12 11 11 11 9 7 6 4 3 3 4 6 5 4 6 5 5 5 5 5 4 3 3 3 3 3 4 3 3 2 2 1 1 1 1 2 2 2 2 2
13 13 14 15 11 10 10 9 7 6 4 4 4 4 5 6 5 4 5 5 4 4 4 4 5 4 3 3 3 3 3 3 3 3 2 2 1 1 2 2 1 2 2 2
10 12 15 12 9 8 8 7 6 5 1 2 4 4 5 6 5 4 4 4 4 3 3 3 4 4 3 4 3 3 3 2 2 3 2 2 2 2 2 2 2 2 2 2
9 12 13 11 7 6 6 6 4 3 1 2 4 5 5 6 6 4 4 3 3 3 3 3 4 3 3 3 3 2 2 2 2 2 2 3 3 2 2 2 2 2 2 2
11 13 12 7 5 5 6 6 2 2 1 1 3 2 4 6 6 4 3 2 2 2 4 3 3 3 3 2 3 2 1 1 1 1 2 2 1 2 2 2 2 3 3 3
12 12 9 6 5 6 7 1 2 1 1 1 2 2 5 6 6 5 4 3 3 3 4 3 2 3 2 1 1 2 2 1 0 0 1 2 2 2 2 3 3 3 2 2
10 11 7 6 4 2 1 2 1 1 2 3 5 6 6 6 5 4 4 4 4 4 3 3 2 2 1 1 1 1 2 1 1 1 2 2 2 2 3 3 3 3 2 2
4 4 0 4 3 3 3 2 2 2 3 4 4 5 5 5 4 3 3 3 2 3 3 3 2 1 1 1 1 1 1 1 1 1 1 1 2 3 3 3 3 2 2 1
3 4 3 2 1 1 2 3 3 2 2 3 3 3 3 4 3 2 2 2 2 2 2 2 2 1 0 1 1 1 0 0 1 1 2 1 1 2 2 2 2 1 1 1
5 4 3 2 2 1 1 2 2 2 1 1 0 1 2 2 2 2 2 2 2 2 2 2 1 1 0 1 1 0 1 1 2 2 2 1 1 1 1 0 1 1 1 1
4 2 2 2 3 3 3 2 2 2 2 2 1 2 1 1 1 1 1 2 2 2 2 2 1 1 0 0 1 1 2 2 2 1 1 2 2 1 2 0 1 1 1 1
5 4 3 3 3 3 3 3 3 2 2 3 1 1 1 1 1 1 1 1 2 2 2 1 1 1 1 1 1 1 2 2 2 2 2 3 3 2 1 0 0 0 0 2
4 3 2 3 3 4 3 3 3 2 3 3 1 1 1 1 1 1 1 0 1 1 1 1 1 1 1 1 1 1 3 3 2 2 2 2 2 2 2 2 1 1 1 3
3 3 2 3 4 3 3 2 2 3 2 2 0 0 1 0 0 0 1 0 0 1 1 2 1 1 1 2 2 2 3 2 2 2 2 2 1 1 1 1 1 1 1 1
4 3 2 3 2 3 3 3 3 3 2 2 1 1 0 0 0 0 0 0 1 1 1 1 1 1 1 2 2 2 2 3 3 2 3 2 2 2 1 1 1 1 1 1
3 3 3 3 3 3 3 3 3 3 3 2 2 0 0 0 0 0 0 1 0 0 0 0 1 0 1 2 2 2 2 2 3 3 2 2 2 2 2 1 1 2 1 2
4 4 4 4 3 4 3 3 3 3 3 2 1 1 1 0 1 1 1 1 1 1 1 1 1 1 2 2 2 2 2 2 2 2 1 1 2 2 2 2 2 3 1 2
6 5 4 4 4 4 3 3 3 3 3 2 1 1 1 1 1 1 0 0 1 2 0 1 1 2 2 1 2 2 2 2 2 1 1 1 2 2 3 2 2 1 1 0
4 3 3 3 4 4 4 3 3 3 2 2 1 1 1 1 1 1 1 2 2 1 1 1 1 1 1 1 2 2 2 2 2 1 1 1 2 2 2 2 2 2 1 1
4 3 3 3 3 3 4 4 3 3 3 2 1 1 1 1 1 1 1 2 0 1 0 1 1 1 1 2 3 2 2 2 2 2 2 2 2 2 2 2 2 2 2 1
4 3 3 3 3 4 4 3 3 3 3 2 1 0 1 1 2 2 1 1 0 1 0 1 1 1 2 3 2 2 2 2 2 2 2 2 2 3 2 2 2 2 1 1
4 3 3 3 3 4 4 3 3 3 2 1 1 1 1 2 2 2 1 1 0 1 1 1 1 1 2 3 3 2 3 2 2 2 2 2 3 3 3 3 2 2 1 1
3 3 3 3 4 4 4 3 3 2 2 2 1 2 2 1 1 1 0 1 1 2 1 1 2 1 2 3 3 3 3 2 2 2 2 3 3 3 2 3 3 2 1 1
3 3 3 3 3 3 3 2 2 2 3 2 1 1 1 1 1 0 0 1 2 2 1 2 3 3 3 3 3 3 3 2 2 3 3 3 3 2 2 2 2 2 2 2
3 3 2 3 3 3 2 2 2 2 1 1 1 1 1 1 1 0 1 1 1 2 2 1 2 2 3 3 3 3 2 2 2 3 3 2 2 1 1 1 2 2 1 2
3 3 2 3 3 3 2 2 2 2 1 1 1 1 1 1 1 1 0 0 0 1 1 1 2 3 3 3 2 2 2 1 2 2 2 2 1 1 1 1 1 0 1 1
Wind_Direction
265 264 255 252 247 244 246 256 260 250 226 223 189 175 134 117 118 118 116 119 121 124 123 128 135 133 137 141 135 127 132 133 133 140 127 113 144 192 193 191 198 197 209 225
266 265 263 258 255 256 247 245 249 248 243 202 164 148 128 120 125 130 116 107 108 115 118 134 140 149 143 144 143 134 142 146 137 153 155 171 187 201 232 209 201 199 227 238
263 262 262 256 253 252 261 255 249 246 225 171 157 153 137 130 140 131 120 117 116 124 145 144 142 137 152 146 139 148 153 156 152 163 177 205 217 218 241 248 226 215 229 235
259 268 255 257 264 258 257 269 270 265 237 159 146 133 126 125 119 116 105 109 113 116 115 136 127 135 157 148 143 151 150 158 153 174 189 192 201 214 237 249 232 224 237 235
256 256 254 258 266 274 266 268 281 279 178 134 129 130 119 99 93 84 87 93 109 120 110 105 114 125 145 149 145 146 166 178 176 190 200 201 204 219 220 233 233 231 229 228
252 257 256 263 279 280 258 232 269 310 285 162 162 177 119 100 99 101 96 84 94 97 87 87 104 107 126 143 139 144 161 212 190 194 224 222 211 238 233 235 236 234 225 222
251 257 259 281 274 269 258 257 24 136 175 107 79 56 97 101 105 113 111 106 92 88 86 74 83 99 103 115 113 117 113 90 29 236 223 178 180 227 237 239 242 241 232 234
245 250 255 322 299 297 42 19 26 83 91 91 83 86 92 94 97 102 103 98 104 100 92 87 78 89 112 74 68 106 125 144 165 189 246 180 174 209 222 235 234 232 225 239
250 242 223 318 336 40 64 62 40 66 64 80 92 93 95 97 100 101 102 97 106 115 110 105 90 92 127 86 66 92 117 160 195 220 237 212 202 219 219 221 229 221 210 216
278 255 225 226 157 35 22 45 44 44 65 69 71 90 100 111 109 111 112 109 117 122 119 110 106 96 27 82 80 85 181 230 220 223 228 237 256 239 236 234 231 216 199 215
263 258 312 332 19 60 6 346 9 9 36 50 60 111 108 112 121 139 146 142 143 136 127 126 131 131 355 58 84 247 245 231 231 239 242 226 243 321 270 270 257 215 231 252
278 326 329 324 354 350 329 321 328 352 1 318 268 141 139 134 128 163 168 153 152 151 149 150 158 152 222 132 197 236 237 243 244 242 250 239 205 187 43 23 100 135 162 203
296 302 310 313 326 314 296 308 313 325 311 284 243 179 186 168 180 175 195 154 167 164 159 159 186 187 191 182 217 247 265 261 262 262 253 250 232 203 188 110 78 332 246 206
320 300 305 315 317 325 330 333 334 318 290 277 274 152 160 178 197 174 166 178 178 182 174 173 190 183 187 176 201 254 268 261 258 255 259 250 245 228 210 205 205 234 240 220
300 297 295 295 288 298 301 294 273 265 277 285 301 165 171 189 292 299 72 81 189 215 204 192 201 210 235 218 216 254 271 278 272 280 278 269 256 266 256 218 210 205 169 165
293 292 270 262 276 289 298 301 291 281 278 278 269 251 238 349 306 313 91 141 208 227 228 203 212 227 238 238 235 243 249 256 269 273 276 281 279 271 261 238 229 226 210 161
309 306 312 322 323 314 314 320 319 318 308 287 286 317 38 15 262 222 288 308 344 326 227 148 333 304 250 248 256 260 260 240 240 265 274 278 272 267 269 249 256 250 215 192
284 280 285 296 305 310 305 303 303 309 306 296 289 240 180 215 246 257 276 314 295 289 338 24 18 315 272 257 273 273 274 266 248 264 282 284 282 275 267 255 246 249 221 191
277 275 280 297 313 311 313 316 309 312 306 282 255 273 281 265 244 225 210 287 274 262 300 44 17 283 283 298 291 259 267 268 268 270 268 263 266 267 269 273 278 276 277 144
270 275 290 300 299 305 311 308 305 305 310 312 291 279 280 269 243 223 219 256 271 328 52 44 228 236 275 334 311 278 277 282 290 300 287 276 276 275 272 277 281 286 277 249
282 279 283 297 308 314 314 312 308 304 313 306 284 267 269 278 256 238 235 274 349 58 18 222 238 276 294 314 277 279 283 280 282 284 292 294 293 297 293 288 281 285 290 285
300 297 303 307 308 307 308 311 314 306 308 310 300 284 266 257 253 253 252 260 217 97 267 280 325 19 349 305 272 274 279 284 281 283 285 288 288 291 292 290 282 279 280 286
304 307 303 301 299 295 295 298 297 297 297 294 262 227 260 269 260 251 248 215 123 113 258 317 61 68 336 289 290 284 280 281 284 289 291 282 272 268 274 282 285 291 320 320
298 302 294 292 289 284 285 288 294 293 280 261 235 205 221 249 260 258 194 141 146 172 238 118 141 198 271 273 279 279 275 276 278 281 284 284 284 287 294 299 301 309 323 323
301 299 291 286 282 275 268 265 264 259 261 267 259 256 251 247 258 283 250 149 151 191 185 157 194 225 257 270 269 272 275 281 285 282 273 272 274 285 302 311 317 321 329 339
282 282 286 280 278 276 272 272 275 277 283 287 289 304 313 296 261 204 175 149 175 231 240 195 198 228 253 260 264 265 269 262 260 264 270 275 281 284 305 326 331 337 0 11
256 258 256 266 273 273 275 283 288 297 316 316 315 336 345 341 343 333 274 194 206 245 250 233 226 238 254 266 274 273 270 283 281 278 286 292 302 316 298 257 267 354 20 15